Location: Oakhurst
(33.6448°N, 111.9543°W)
Time: 02:15:53
(UTC+00:00)

X-37B - Pass Details

Date: 19 May 2021
Orbit: 386 x 389 km, 45.0° (Epoch: 23 June)

Event Time Altitude Azimuth Distance (km) Brightness Sun altitude
Rises 03:17:48 0° 289° (WNW) 2,269 6.3 -10.6°
Reaches altitude 10° 03:20:13 10° 271° (W) 1,411 4.4 -11.1°
Maximum altitude 03:22:37 20° 222° (SW) 972 2.7 -11.5°
Enters shadow 03:24:59 10° 173° (S) 1,404 3.0 -11.9°
